Location: �clusier
(49.9361°N, 2.7869°E)
Time: 20:36:02
(UTC+00:00)

Centaur D AC-29 - Pass Details

Date: 23 October 2021
Orbit: 563 x 36274 km, 26.9° (Epoch: 02 December)

Event Time Altitude Azimuth Distance (km) Brightness Sun altitude
Rises 03:22:36 0° 206° (SSW) 14,169 7.6 -29.5°
Reaches altitude 10° 03:35:01 10° 201° (SSW) 16,140 7.9 -27.6°
Maximum altitude 07:20:48 45° 219° (SW) 37,398 10.0 7.6°
Drops below altitude 10° 13:10:05 10° 165° (SSE) 6,096 7.0 24.9°
Sets 13:13:09 0° 156° (SSE) 6,155 6.7 24.7°
